Temperature
10 10 10 10 10 10 10 10 10 10 10 10 10 10 10 10 10 9 9 9 9 9 9 9 9 9 9 9 9 9 9 9 9 9 9 9 9 9 9 9 9 9 9
9 9 9 9 9 9 9 9 9 9 9 9 9 9 9 9 9 9 9 9 9 9 8 8 8 8 8 8 8 8 8 8 8 8 8 8 8 8 8 8 8 8 9
9 9 9 9 9 9 9 9 9 9 9 9 9 9 9 8 8 8 8 8 8 8 8 8 8 8 8 8 8 8 8 8 8 8 8 8 8 8 8 8 8 8 8
9 9 9 8 8 8 8 8 8 8 8 8 8 8 8 8 8 8 8 8 8 8 8 8 8 8 7 7 7 7 7 7 7 7 7 7 7 7 7 7 7 7 7
8 8 8 8 8 8 8 8 8 8 8 8 8 7 7 7 7 7 7 7 7 7 7 7 7 7 7 7 7 7 7 7 7 7 7 7 7 7 7 7 7 7 7
8 8 8 8 8 8 8 8 8 7 7 7 7 7 7 6 6 6 6 7 7 7 7 7 7 7 7 6 6 6 6 6 6 6 6 6 6 7 6 6 6 7 7
7 7 7 7 7 7 7 7 7 7 7 7 7 6 6 6 6 6 6 6 6 6 6 6 6 6 6 6 6 6 6 6 6 6 6 6 6 6 6 6 6 6 6
7 7 7 7 7 7 7 7 7 7 6 6 6 6 5 5 5 5 5 5 5 5 5 5 5 5 5 5 6 5 5 5 5 5 5 5 5 5 6 6 6 6 6
6 7 6 6 6 6 6 6 6 7 6 6 6 6 5 5 5 5 5 5 5 5 5 5 5 5 5 5 5 5 5 5 5 5 5 5 5 5 5 5 5 5 5
6 6 6 6 6 6 6 6 6 6 6 6 5 5 5 5 5 4 4 4 5 5 5 4 4 4 4 4 4 4 4 4 4 4 4 4 4 4 4 4 4 4 4
5 5 6 6 6 6 6 6 5 5 5 5 5 5 5 5 5 5 4 4 4 4 4 4 4 4 4 4 4 4 4 4 4 4 4 4 4 4 4 4 4 4 4
5 5 5 5 5 5 5 5 5 5 5 5 5 5 5 5 5 5 4 4 4 4 3 3 3 4 4 4 4 4 3 3 3 3 3 3 4 4 4 3 3 3 3
4 4 5 5 5 5 5 5 5 5 4 4 4 4 4 4 4 4 4 3 3 3 3 3 3 3 3 3 3 3 3 3 3 3 3 3 3 3 3 3 3 3 3
4 4 4 4 4 4 4 4 4 4 4 4 4 4 4 4 4 4 4 3 2 2 2 2 3 3 3 3 3 3 3 3 3 3 3 3 3 3 2 2 3 2 2
3 4 4 4 4 4 4 4 4 4 4 3 3 3 3 3 3 3 3 3 2 2 2 2 2 2 2 2 2 2 2 2 2 2 2 2 2 2 2 2 2 2 2
3 3 3 3 3 3 3 3 3 3 3 3 3 3 2 2 3 2 2 2 2 2 1 2 2 2 2 2 2 2 2 2 2 1 2 2 2 1 1 1 1 1 1
2 2 2 2 2 2 2 3 3 3 3 3 2 2 2 2 2 2 2 1 1 1 1 1 1 1 1 1 1 1 1 1 1 1 1 1 1 1 1 1 0 0 0
2 2 2 2 2 2 2 2 2 2 2 2 2 2 1 1 1 1 1 1 1 1 1 1 1 1 0 0 0 0 -0 -0 -0 -0 -0 -0 -0 -0 0 -0 -0 -0 -0
1 1 1 1 1 1 1 1 1 2 2 1 1 1 1 1 1 1 1 0 0 0 -0 -0 0 -0 -0 -0 -1 -1 -1 -1 -1 -1 -1 -1 -1 -1 -1 -1 -1 -1 -1
1 1 1 0 1 1 1 1 1 1 1 1 1 0 0 0 0 0 -0 -0 -0 -1 -1 -1 -1 -1 -1 -1 -1 -1 -1 -1 -2 -2 -2 -2 -2 -2 -2 -2 -2 -2 -2
-0 -0 -0 -0 -0 -0 -0 -0 -0 -0 -0 -0 -0 -0 -0 -0 -0 -1 -1 -1 -1 -1 -1 -1 -2 -2 -2 -2 -2 -2 -2 -2 -2 -2 -2 -2 -2 -2 -2 -2 -2 -2 -3
-1 -1 -1 -1 -1 -1 -1 -1 -1 -1 -1 -1 -1 -1 -1 -1 -1 -1 -1 -2 -2 -2 -2 -2 -2 -2 -2 -3 -3 -3 -3 -3 -3 -3 -3 -3 -3 -3 -3 -3 -3 -3 -3
-2 -2 -2 -2 -1 -2 -2 -2 -2 -2 -2 -1 -1 -1 -2 -2 -2 -2 -2 -2 -2 -2 -2 -2 -2 -2 -3 -3 -3 -3 -4 -4 -4 -4 -4 -4 -4 -4 -4 -4 -4 -4 -4
-2 -2 -2 -2 -2 -2 -2 -3 -3 -2 -2 -2 -2 -2 -2 -2 -2 -3 -3 -3 -3 -3 -3 -3 -3 -3 -3 -4 -4 -4 -4 -4 -4 -5 -5 -5 -4 -4 -5 -5 -5 -5 -5
-3 -3 -3 -3 -3 -3 -3 -3 -3 -3 -3 -3 -3 -3 -3 -3 -3 -3 -4 -4 -4 -4 -4 -4 -4 -5 -5 -5 -5 -5 -5 -5 -5 -5 -5 -6 -6 -5 -5 -5 -6 -6 -6
-4 -4 -4 -4 -4 -4 -4 -4 -4 -4 -4 -4 -4 -4 -4 -4 -4 -4 -4 -5 -5 -5 -5 -5 -5 -5 -6 -6 -6 -6 -6 -6 -6 -6 -6 -6 -6 -7 -7 -6 -6 -7 -7
Wind_Speed
7 8 8 9 9 9 10 9 10 11 11 12 12 12 12 12 12 12 12 13 13 12 12 12 12 13 13 13 14 13 12 12 12 12 12 12 13 12 12 11 11 11 11
9 8 7 7 8 9 9 10 10 10 9 10 10 11 11 12 12 13 12 13 13 12 11 11 11 12 12 12 12 12 12 11 11 11 11 11 11 11 11 10 10 10 10
10 9 7 6 7 9 10 10 10 10 8 8 8 9 10 11 11 12 12 12 12 12 11 10 10 11 10 10 11 10 10 10 10 10 11 10 10 11 11 11 9 9 9
11 9 7 6 8 9 9 8 6 6 5 5 5 6 7 9 10 10 11 11 11 10 11 11 10 10 9 9 9 9 9 9 9 9 10 10 9 10 10 10 10 9 8
10 9 8 7 9 8 7 6 5 5 5 5 5 5 5 6 7 8 9 10 10 10 10 10 10 9 9 8 8 8 8 8 8 9 8 8 8 9 9 9 9 9 8
10 9 8 8 9 7 5 5 6 5 5 6 6 5 4 5 6 6 6 7 8 9 9 9 8 8 8 7 7 7 7 7 7 7 7 7 7 7 8 8 8 8 8
9 9 7 7 7 6 6 6 6 7 4 5 5 4 4 4 4 3 4 5 6 6 7 8 7 7 7 6 6 6 5 5 5 5 5 5 5 6 6 6 7 7 8
8 8 8 7 6 5 6 6 6 4 3 3 4 4 2 2 2 2 1 2 3 4 5 5 6 6 6 6 5 5 4 4 3 4 4 4 4 4 4 5 5 6 7
7 7 8 8 7 6 6 6 7 6 5 2 2 4 4 3 1 1 1 1 1 2 2 3 4 4 4 4 4 4 4 4 3 2 2 2 2 3 3 3 3 5 5
7 7 8 8 7 6 6 6 5 4 7 5 2 1 2 4 3 1 1 1 0 0 0 1 1 2 3 3 2 2 2 3 2 2 2 2 2 2 3 2 3 3 4
5 7 7 8 7 6 6 6 5 5 5 6 4 2 2 1 2 3 2 1 1 1 1 2 1 1 2 2 1 1 1 2 2 3 3 3 3 3 3 3 3 3 3
3 5 6 7 7 6 6 7 6 6 5 5 4 4 4 3 3 3 3 3 2 2 2 2 3 3 2 2 2 1 1 2 3 3 4 4 4 4 4 4 3 3 4
3 4 5 6 6 6 7 7 6 6 6 6 6 4 4 3 4 4 4 2 1 1 1 2 4 4 3 3 3 3 3 3 3 3 4 4 4 4 4 4 4 5 5
4 5 6 6 6 6 7 6 5 5 5 6 6 5 4 3 4 4 4 4 2 1 2 3 2 4 4 4 4 3 3 3 3 4 4 4 4 4 4 5 5 5 5
5 6 6 6 5 6 6 6 5 5 5 5 5 5 4 3 4 3 4 5 5 3 4 3 2 3 4 4 4 3 3 3 4 4 4 3 3 4 4 5 5 5 6
5 6 5 6 5 5 6 5 4 5 6 5 4 5 4 3 3 3 4 4 4 4 3 3 3 2 3 3 4 2 3 3 3 4 3 3 4 4 5 5 5 6 6
6 6 6 6 6 5 5 5 4 5 6 5 5 6 5 4 4 4 4 4 3 3 3 2 1 1 2 2 2 3 3 3 3 3 3 4 4 5 5 5 5 5 5
6 6 6 5 6 5 5 5 6 6 7 7 6 6 5 4 5 4 4 4 4 3 4 3 2 1 1 2 2 2 2 3 3 3 4 4 4 4 5 4 5 5 6
5 5 5 6 6 6 5 5 5 5 6 6 6 6 6 5 5 4 5 5 4 3 3 4 3 2 1 1 1 1 1 2 3 3 4 4 5 5 5 4 5 6 6
4 5 6 6 5 5 5 5 5 5 5 5 5 6 6 7 7 6 5 6 5 4 3 4 3 2 2 2 2 1 1 1 1 3 5 5 5 5 5 5 6 6 7
4 5 5 5 4 4 5 5 5 5 5 5 4 5 5 6 7 6 5 6 6 5 5 4 4 3 2 3 3 2 2 1 2 2 2 3 3 3 5 6 6 7 7
3 4 5 5 5 4 6 7 6 5 5 5 5 4 4 5 6 7 7 7 8 7 7 6 4 5 5 4 3 3 2 1 2 2 1 2 2 2 5 6 6 7 7
3 4 4 5 5 5 6 7 7 5 5 5 5 4 3 4 4 4 5 6 6 7 7 6 7 7 6 6 5 4 4 4 3 2 1 2 1 2 5 6 7 7 7
3 4 4 4 4 4 6 6 6 4 4 4 4 5 5 4 4 4 4 3 3 2 4 4 5 6 5 6 6 5 4 2 1 1 1 2 2 2 4 5 6 6 7
3 3 3 4 5 4 5 5 4 3 3 3 3 4 4 5 6 6 5 4 3 2 2 4 4 4 5 5 5 3 3 3 2 2 1 1 2 2 2 3 5 6 7
2 2 2 3 3 4 5 5 5 3 3 2 2 2 4 5 6 7 5 5 5 4 3 2 2 1 1 2 4 4 4 4 2 2 2 1 1 1 2 2 3 5 6
Wind_Direction
114 107 101 98 96 98 97 94 92 91 87 83 82 83 80 78 76 75 74 78 86 88 90 91 93 92 89 86 84 82 80 76 74 72 71 70 66 65 63 63 65 64 61
122 118 110 103 102 104 103 101 100 95 89 87 79 77 78 81 77 75 74 72 74 81 88 90 90 91 89 87 84 81 78 75 73 71 71 70 68 64 61 60 60 62 60
126 125 119 113 112 112 109 104 98 94 91 87 79 74 76 81 79 73 71 70 69 70 76 83 86 89 90 88 85 82 78 75 74 73 72 68 65 63 60 57 56 58 57
133 127 123 121 120 116 113 110 106 103 94 89 79 69 71 78 78 76 72 70 69 66 68 72 79 84 90 92 89 85 82 78 74 73 71 65 63 61 60 55 53 52 52
140 135 131 130 127 118 114 118 111 114 110 97 86 70 62 68 73 79 74 72 72 70 69 71 73 75 80 87 89 86 83 77 71 68 67 64 60 57 54 53 51 48 48
146 139 135 134 132 124 121 122 121 111 118 116 96 70 52 54 63 69 73 75 74 73 75 74 72 72 73 75 79 78 79 77 71 66 64 60 55 53 50 46 47 46 45
150 145 141 141 140 139 143 135 131 120 112 121 99 74 37 36 46 46 63 72 70 74 79 79 76 76 71 70 68 66 64 67 67 64 58 53 47 45 45 40 38 39 38
158 157 151 152 148 141 144 144 140 140 143 152 131 124 98 13 2 10 30 78 70 71 74 77 79 77 74 70 65 57 49 47 53 58 48 39 35 33 32 33 33 32 28
168 164 159 156 154 151 162 164 160 154 161 185 153 144 152 191 210 327 350 51 89 80 70 78 82 81 80 77 75 58 42 30 23 24 20 13 15 17 16 17 24 23 18
168 168 163 162 163 162 167 175 169 166 161 170 174 133 146 154 156 179 294 326 1 156 143 91 102 100 92 92 90 69 39 15 358 340 328 327 337 339 342 347 1 1 2
173 172 170 165 168 171 172 173 170 173 175 174 172 155 120 98 123 156 200 246 306 267 233 212 196 164 133 131 137 126 17 338 322 316 313 318 318 313 307 308 325 333 342
180 180 176 173 174 177 180 180 178 179 181 177 174 172 168 166 174 166 184 202 230 268 260 227 213 203 193 188 199 226 257 285 298 302 301 309 319 323 315 305 309 319 325
198 200 185 183 182 185 186 182 179 187 186 181 183 186 183 181 165 159 161 172 206 267 279 257 233 218 214 216 223 240 250 262 276 287 290 298 308 313 317 313 311 314 314
201 195 190 191 189 186 184 181 179 191 185 187 187 183 183 187 173 166 162 156 164 255 258 256 259 223 223 219 229 241 252 258 264 280 285 292 308 318 320 317 314 313 314
194 189 189 188 188 185 184 179 189 190 186 190 186 184 189 191 181 171 165 165 167 194 230 237 239 245 232 219 227 239 262 262 261 270 277 288 304 311 312 314 315 316 317
188 185 189 188 186 184 183 179 191 188 186 191 185 183 193 190 178 174 174 172 171 175 208 224 229 242 221 223 233 240 263 271 274 268 272 281 288 297 301 301 303 305 305
186 186 192 187 186 186 183 185 194 189 189 191 189 188 198 183 181 184 177 173 173 163 198 237 251 218 195 198 230 235 249 258 265 284 286 278 278 284 291 291 294 296 302
190 187 189 189 187 187 186 189 195 192 191 193 193 188 196 187 186 188 185 185 186 179 181 208 232 213 227 206 205 222 256 258 256 275 295 293 294 295 295 290 294 297 297
191 183 183 192 190 191 192 197 197 196 196 196 192 191 195 184 196 195 192 192 188 186 180 186 209 206 213 203 183 268 281 273 269 271 289 294 301 304 304 306 305 304 303
191 187 190 194 192 193 194 195 197 195 195 197 196 196 195 191 197 195 197 196 182 175 171 175 191 199 205 201 176 202 281 304 287 271 284 289 301 312 315 313 313 311 306
194 191 188 190 189 193 195 192 195 193 194 196 199 202 201 199 201 200 200 190 179 178 177 180 193 203 209 195 204 202 224 280 285 259 287 282 284 299 309 314 314 311 307
195 188 188 187 193 205 205 203 195 191 192 194 198 200 205 206 208 214 217 206 193 186 187 191 205 207 216 213 206 202 205 223 264 253 228 281 258 283 288 294 304 310 311
196 193 192 189 195 204 205 208 205 186 189 195 194 190 200 207 207 204 218 217 214 215 210 201 200 209 209 204 196 203 205 213 238 229 193 271 265 279 278 289 299 311 314
199 195 194 192 195 204 207 206 201 179 185 194 194 192 191 192 194 188 179 177 188 215 221 212 210 212 206 195 195 200 197 203 256 226 192 253 266 274 283 286 294 307 316
195 196 193 193 194 202 203 200 193 171 181 192 189 186 184 185 197 193 172 169 175 198 221 219 225 226 218 205 189 161 169 177 227 240 218 227 254 284 286 277 287 309 320
186 187 191 192 193 199 203 194 187 171 180 185 181 187 199 196 200 197 176 170 184 195 173 152 151 163 188 209 218 204 193 193 205 234 223 197 221 292 299 285 285 304 314
Height
1535 1537 1538 1540 1541 1543 1544 1545 1547 1548 1549 1551 1552 1553 1554 1555 1557 1557 1558 1560 1561 1561 1562 1563 1563 1563 1563 1564 1564 1564 1564 1565 1565 1565 1565 1565 1565 1564 1564 1564 1564 1564 1564
1534 1536 1537 1539 1540 1542 1543 1545 1546 1547 1549 1550 1552 1553 1554 1555 1557 1558 1558 1559 1560 1561 1562 1563 1563 1563 1563 1564 1564 1564 1564 1564 1564 1564 1564 1564 1564 1564 1564 1564 1564 1564 1564
1533 1534 1536 1538 1539 1541 1543 1544 1545 1547 1548 1550 1551 1553 1554 1555 1556 1557 1558 1559 1560 1561 1561 1562 1562 1563 1563 1563 1563 1563 1563 1563 1564 1564 1564 1564 1564 1564 1564 1564 1564 1564 1564
1531 1533 1534 1536 1538 1540 1541 1543 1544 1545 1547 1549 1550 1552 1553 1555 1556 1557 1558 1559 1559 1560 1561 1561 1562 1562 1562 1563 1563 1563 1563 1563 1563 1563 1563 1563 1563 1563 1563 1563 1563 1563 1563
1530 1531 1532 1534 1536 1538 1540 1541 1543 1544 1546 1547 1549 1551 1552 1554 1555 1557 1557 1558 1559 1559 1560 1560 1561 1561 1561 1562 1562 1562 1562 1562 1562 1562 1562 1562 1562 1562 1562 1562 1562 1562 1562
1527 1529 1530 1532 1534 1536 1538 1539 1541 1543 1544 1546 1547 1549 1551 1553 1555 1555 1556 1557 1558 1558 1559 1559 1560 1560 1560 1560 1561 1561 1561 1561 1561 1561 1561 1561 1561 1561 1561 1560 1560 1560 1560
1524 1526 1528 1530 1531 1533 1535 1537 1539 1540 1542 1544 1546 1548 1550 1552 1553 1554 1555 1555 1556 1557 1557 1558 1558 1558 1559 1559 1559 1559 1559 1559 1559 1559 1559 1559 1559 1559 1559 1559 1558 1558 1558
1521 1523 1525 1527 1529 1530 1532 1534 1536 1538 1539 1542 1543 1545 1547 1550 1551 1552 1553 1553 1554 1555 1555 1556 1556 1556 1556 1556 1557 1557 1557 1557 1557 1557 1556 1557 1557 1557 1557 1556 1556 1556 1556
1518 1520 1522 1524 1525 1527 1529 1530 1532 1534 1536 1539 1541 1542 1544 1545 1547 1549 1549 1550 1551 1552 1553 1553 1554 1554 1554 1554 1554 1554 1555 1555 1555 1555 1554 1554 1554 1554 1554 1554 1554 1553 1553
1515 1517 1519 1520 1522 1524 1526 1528 1529 1531 1533 1535 1537 1539 1541 1541 1543 1544 1546 1547 1548 1549 1549 1550 1551 1551 1551 1551 1551 1552 1552 1552 1552 1552 1552 1552 1551 1551 1551 1551 1551 1551 1550
1511 1513 1515 1517 1519 1521 1522 1524 1526 1528 1530 1531 1533 1534 1536 1537 1538 1539 1541 1543 1544 1545 1546 1547 1547 1548 1548 1548 1548 1549 1549 1549 1549 1549 1549 1549 1548 1548 1548 1548 1548 1547 1547
1507 1509 1511 1513 1515 1517 1518 1520 1522 1524 1526 1528 1530 1531 1532 1533 1535 1536 1537 1538 1540 1541 1542 1543 1544 1544 1544 1545 1545 1545 1545 1545 1545 1545 1545 1545 1545 1545 1544 1545 1544 1544 1544
1502 1505 1507 1508 1510 1512 1515 1516 1518 1520 1522 1524 1526 1527 1529 1531 1532 1533 1534 1535 1536 1537 1538 1539 1540 1540 1541 1541 1541 1541 1541 1541 1541 1542 1542 1542 1541 1541 1541 1541 1541 1541 1540
1498 1501 1503 1504 1506 1508 1510 1512 1514 1516 1518 1519 1521 1523 1525 1527 1528 1529 1531 1532 1532 1533 1534 1535 1536 1536 1537 1537 1537 1537 1537 1537 1537 1538 1538 1538 1538 1538 1537 1537 1537 1537 1537
1495 1497 1499 1500 1502 1503 1506 1507 1509 1511 1513 1514 1516 1518 1520 1522 1524 1525 1527 1528 1530 1529 1529 1531 1532 1532 1533 1533 1534 1533 1533 1533 1534 1534 1534 1534 1534 1533 1533 1534 1533 1533 1532
1490 1493 1494 1496 1497 1499 1501 1503 1504 1506 1508 1509 1511 1513 1515 1517 1518 1520 1522 1523 1525 1526 1525 1526 1527 1528 1529 1530 1530 1530 1530 1530 1530 1530 1530 1530 1530 1529 1529 1529 1529 1528 1528
1486 1488 1490 1491 1493 1494 1496 1498 1499 1501 1503 1504 1506 1508 1509 1511 1513 1515 1517 1518 1520 1521 1521 1522 1523 1524 1525 1525 1526 1526 1526 1526 1526 1526 1526 1526 1526 1525 1525 1525 1524 1524 1523
1482 1483 1485 1487 1488 1490 1491 1493 1495 1496 1497 1499 1501 1502 1504 1506 1508 1510 1511 1513 1514 1516 1517 1517 1518 1519 1521 1521 1521 1521 1521 1522 1522 1522 1522 1522 1521 1521 1521 1520 1520 1519 1519
1477 1479 1481 1482 1483 1485 1487 1488 1490 1491 1492 1494 1495 1497 1499 1501 1503 1504 1506 1508 1509 1511 1512 1513 1513 1515 1516 1516 1517 1517 1517 1518 1518 1518 1518 1518 1517 1517 1516 1516 1515 1515 1514
1473 1474 1476 1478 1479 1480 1482 1484 1485 1486 1488 1489 1491 1493 1495 1496 1498 1500 1501 1502 1504 1505 1507 1507 1508 1509 1510 1512 1512 1513 1513 1514 1514 1514 1514 1513 1513 1512 1512 1512 1511 1511 1510
1469 1470 1472 1473 1475 1476 1478 1479 1480 1481 1483 1485 1487 1488 1490 1491 1493 1494 1496 1497 1499 1500 1501 1502 1503 1504 1505 1506 1507 1508 1509 1509 1509 1509 1509 1509 1508 1508 1508 1508 1507 1507 1506
1465 1466 1467 1469 1470 1472 1473 1475 1476 1477 1478 1480 1482 1483 1485 1487 1488 1490 1491 1493 1494 1495 1496 1497 1498 1498 1500 1501 1503 1504 1504 1504 1504 1506 1505 1504 1504 1504 1504 1504 1503 1502 1501
1461 1462 1463 1465 1466 1468 1469 1471 1472 1473 1474 1475 1477 1479 1480 1482 1483 1484 1486 1487 1488 1490 1492 1493 1493 1494 1495 1497 1498 1499 1499 1499 1499 1500 1501 1499 1500 1499 1499 1499 1499 1498 1497
1457 1458 1459 1461 1462 1464 1465 1467 1468 1469 1470 1471 1472 1474 1476 1477 1479 1480 1481 1482 1483 1485 1487 1488 1489 1490 1491 1492 1493 1495 1495 1495 1496 1496 1496 1495 1495 1495 1495 1495 1494 1494 1493
1453 1455 1456 1457 1458 1460 1461 1462 1463 1464 1465 1467 1468 1470 1471 1473 1474 1476 1477 1477 1479 1480 1482 1483 1485 1486 1487 1488 1489 1490 1490 1490 1490 1491 1492 1491 1490 1490 1490 1490 1490 1490 1489
1450 1451 1452 1454 1455 1456 1457 1458 1459 1460 1461 1462 1464 1465 1467 1468 1470 1471 1473 1473 1474 1476 1477 1478 1480 1481 1483 1483 1484 1485 1485 1485 1485 1486 1486 1487 1487 1487 1486 1486 1486 1486 1485